Date String (YYYY-MM-DD hh:mm:ss) UTC,Instrument flags,Ambient pressure (hPa),Sample flow (lpm),Bypass flow (lpm),Sample temperature (°C),Ambient temperature (°C),ASC tube jacket temperature (°C),LED temperature (°C),Box temperature (°C),Sample RH (%),Span deviation,Mass concentration (μg/m³),Mass concentration (μg/m³),Mass concentration (μg/m³)
DateTimeUTC,F1_M11,P_M11,Q1_M11,Q2_M11,T1_M11,T2_M11,T3_M11,T4_M11,T5_M11,U1_M11,ZSPAN_M11,X0_M11,X2_M11,X1_M11
2021-12-20 15:00:00,,0826.7,5.00,0.00,23.1,22.2,00.0,32.2,24.8,07.3,0000.0,0001.26,0000.44,0000.35
2021-12-20 15:01:00,,0826.7,4.99,0.00,23.1,22.2,00.0,32.2,24.8,07.3,0000.0,0001.36,0000.47,0000.35
2021-12-20 15:02:00,,0826.7,5.01,0.00,23.1,22.2,00.0,32.1,24.8,07.3,0000.0,0001.38,0000.48,0000.34
2021-12-20 15:03:00,,0826.7,4.99,0.00,23.1,22.1,00.0,32.1,24.8,07.3,0000.0,0001.38,0000.47,0000.34
2021-12-20 15:04:00,,0826.7,5.01,0.00,23.1,22.1,00.0,32.1,24.8,07.4,0000.0,0001.40,0000.48,0000.34
2021-12-20 15:05:00,,0826.7,5.01,0.00,23.1,22.2,00.0,32.1,24.8,07.3,0000.0,0001.41,0000.48,0000.33
2021-12-20 15:06:00,,0826.6,4.99,0.00,23.1,22.2,00.0,32.1,24.8,07.4,0000.0,0001.38,0000.46,0000.34
2021-12-20 15:07:00,,0826.7,4.99,0.00,23.1,22.2,00.0,32.1,24.8,07.4,0000.0,0001.47,0000.46,0000.34
2021-12-20 15:08:00,,0826.7,5.00,0.00,23.1,22.2,00.0,32.1,24.7,07.4,0000.0,0001.51,0000.47,0000.34
2021-12-20 15:09:00,,0826.7,5.00,0.00,23.0,22.2,00.0,32.1,24.7,07.4,0000.0,0001.48,0000.46,0000.33
2021-12-20 15:10:00,,0826.7,5.01,0.00,23.0,22.2,00.0,32.1,24.7,07.4,0000.0,0001.28,0000.44,0000.32
2021-12-20 15:11:00,,0826.7,5.00,0.00,23.0,22.2,00.0,32.1,24.7,07.4,0000.0,0000.74,0000.42,0000.32
2021-12-20 15:12:00,,0826.7,4.99,0.00,23.1,22.2,00.0,32.1,24.8,07.4,0000.0,0000.69,0000.41,0000.32
2021-12-20 15:13:00,,0826.7,5.01,0.00,23.1,22.2,00.0,32.1,24.8,07.4,0000.0,0000.72,0000.43,0000.33
2021-12-20 15:14:00,,0826.7,4.99,0.00,23.1,22.3,00.0,32.1,24.8,07.4,0000.0,0000.84,0000.45,0000.33
2021-12-20 15:15:00,,0826.7,5.00,0.00,23.1,22.3,00.0,32.1,24.8,07.4,0000.0,0001.02,0000.47,0000.34
2021-12-20 15:16:00,,0826.7,5.00,0.00,23.1,22.3,00.0,32.1,24.8,07.4,0000.0,0001.26,0000.48,0000.34
2021-12-20 15:17:00,,0826.7,4.99,0.00,23.1,22.3,00.0,32.1,24.9,07.4,0000.0,0001.63,0000.49,0000.34
2021-12-20 15:18:00,,0826.7,5.01,0.00,23.1,22.3,00.0,32.1,24.9,07.4,0000.0,0002.24,0000.49,0000.34
2021-12-20 15:19:00,,0826.7,4.99,0.00,23.1,22.4,00.0,32.1,24.9,07.4,0000.0,0002.39,0000.48,0000.35
2021-12-20 15:20:00,,0826.7,5.00,0.00,23.1,22.4,00.0,32.1,24.9,07.5,0000.0,0002.77,0000.49,0000.35
2021-12-20 15:21:00,,0826.7,5.01,0.00,23.1,22.4,00.0,32.1,24.9,07.5,0000.0,0002.85,0000.51,0000.36
2021-12-20 15:22:00,,0826.7,4.98,0.00,23.1,22.4,00.0,32.1,24.9,07.4,0000.0,0002.91,0000.54,0000.37
2021-12-20 15:23:00,,0826.7,5.00,0.00,23.2,22.4,00.0,32.1,24.9,07.4,0000.0,0002.94,0000.53,0000.37
2021-12-20 15:24:00,,0826.7,5.01,0.00,23.2,22.4,00.0,32.1,25.0,07.3,0000.0,0003.14,0000.51,0000.37
2021-12-20 15:25:00,,0826.7,5.00,0.00,23.2,22.5,00.0,32.1,25.0,07.3,0000.0,0003.98,0000.51,0000.37
2021-12-20 15:26:00,,0826.7,5.00,0.00,23.2,22.5,00.0,32.1,25.0,07.3,0000.0,0003.87,0000.51,0000.37
2021-12-20 15:27:00,,0826.7,5.00,0.00,23.3,22.5,00.0,32.2,25.1,07.3,0000.0,0003.69,0000.51,0000.37
2021-12-20 15:28:00,,0826.7,4.99,0.00,23.3,22.6,00.0,32.2,25.1,07.3,0000.0,0003.34,0000.52,0000.38
2021-12-20 15:29:00,,0826.7,5.00,0.00,23.3,22.6,00.0,32.2,25.1,07.3,0000.0,0002.89,0000.52,0000.37
2021-12-20 15:30:00,,0826.7,5.00,0.00,23.3,22.6,00.0,32.2,25.1,07.3,0000.0,0002.45,0000.51,0000.37
2021-12-20 15:31:00,,0826.7,5.00,0.00,23.3,22.7,00.0,32.2,25.1,07.3,0000.0,0002.09,0000.50,0000.37
2021-12-20 15:32:00,,0826.7,5.01,0.00,23.4,22.7,00.0,32.2,25.2,07.3,0000.0,0002.02,0000.50,0000.36
2021-12-20 15:33:00,,0826.7,4.99,0.00,23.4,22.7,00.0,32.2,25.2,07.3,0000.0,0001.98,0000.48,0000.36
2021-12-20 15:34:00,,0826.7,5.01,0.00,23.4,22.7,00.0,32.3,25.2,07.3,0000.0,0002.06,0000.48,0000.36
2021-12-20 15:35:00,,0826.7,4.99,0.00,23.4,22.7,00.0,32.3,25.2,07.3,0000.0,0001.89,0000.47,0000.36
2021-12-20 15:36:00,,0826.7,5.00,0.00,23.4,22.8,00.0,32.3,25.3,07.3,0000.0,0000.88,0000.47,0000.35
2021-12-20 15:37:00,,0826.7,5.00,0.00,23.4,22.8,00.0,32.3,25.3,07.3,0000.0,0001.00,0000.48,0000.36
2021-12-20 15:38:00,,0826.7,5.00,0.00,23.5,22.8,00.0,32.3,25.3,07.3,0000.0,0001.70,0000.48,0000.36
2021-12-20 15:39:00,,0826.7,5.00,0.00,23.5,22.8,00.0,32.3,25.3,07.3,0000.0,0003.64,0000.52,0000.36
2021-12-20 15:40:00,,0826.7,5.00,0.00,23.5,22.8,00.0,32.4,25.3,07.3,0000.0,0004.20,0000.56,0000.37
2021-12-20 15:41:00,,0826.7,5.02,0.00,23.5,22.9,00.0,32.4,25.4,07.3,0000.0,0004.41,0000.59,0000.36
2021-12-20 15:42:00,,0826.7,4.99,0.00,23.5,22.9,00.0,32.4,25.4,07.3,0000.0,0004.51,0000.62,0000.37
2021-12-20 15:43:00,,0826.9,5.01,0.00,23.6,22.9,00.0,32.4,25.4,07.3,0000.0,0004.59,0000.63,0000.37
2021-12-20 15:44:00,,0826.8,4.99,0.00,23.6,22.9,00.0,32.4,25.4,07.4,0000.0,0004.75,0000.65,0000.38
2021-12-20 15:45:00,,0826.8,5.01,0.00,23.6,22.9,00.0,32.4,25.4,07.3,0000.0,0004.80,0000.67,0000.38
2021-12-20 15:46:00,,0826.8,4.99,0.00,23.6,23.0,00.0,32.5,25.5,07.3,0000.0,0005.24,0000.70,0000.38
2021-12-20 15:47:00,,0826.8,5.01,0.00,23.6,23.0,00.0,32.5,25.5,07.3,0000.0,0006.61,0000.73,0000.39
2021-12-20 15:48:00,,0826.8,5.01,0.00,23.7,23.0,00.0,32.5,25.5,07.3,0000.0,0007.75,0000.72,0000.38
2021-12-20 15:49:00,,0826.8,4.98,0.00,23.7,23.0,00.0,32.5,25.5,07.3,0000.0,0007.38,0000.71,0000.38
2021-12-20 15:50:00,,0826.9,5.01,0.00,23.7,23.0,00.0,32.5,25.5,07.3,0000.0,0005.60,0000.67,0000.38
2021-12-20 15:51:00,,0826.8,4.99,0.00,23.7,23.0,00.0,32.5,25.5,07.3,0000.0,0005.14,0000.64,0000.38
2021-12-20 15:52:00,,0826.8,5.00,0.00,23.7,23.0,00.0,32.6,25.5,07.3,0000.0,0005.02,0000.63,0000.38
2021-12-20 15:53:00,,0826.8,5.00,0.00,23.7,23.0,00.0,32.6,25.5,07.3,0000.0,0004.93,0000.62,0000.38
2021-12-20 15:54:00,,0827.0,5.00,0.00,23.7,23.1,00.0,32.6,25.5,07.3,0000.0,0004.82,0000.59,0000.38
2021-12-20 15:55:00,,0826.8,5.00,0.00,23.8,23.1,00.0,32.6,25.6,07.4,0000.0,0004.67,0000.57,0000.38
2021-12-20 15:56:00,,0826.8,5.01,0.00,23.8,23.1,00.0,32.6,25.6,07.4,0000.0,0004.70,0000.58,0000.38
2021-12-20 15:57:00,,0826.8,4.99,0.00,23.8,23.1,00.0,32.6,25.6,07.4,0000.0,0004.25,0000.57,0000.38
2021-12-20 15:58:00,,0826.8,4.99,0.00,23.8,23.1,00.0,32.6,25.6,07.4,0000.0,0003.12,0000.56,0000.38
2021-12-20 15:59:00,,0826.9,5.01,0.00,23.8,23.2,00.0,32.7,25.6,07.4,0000.0,0001.22,0000.53,0000.38
